User: anonymous   Login
Location: Ward Pound Ridge Reservation
(41.2500°N, 73.6000°W)
Time: 18:04:50
(UTC-04:00)
Language:

N. Korean satellite - Orbit

View from above orbital plane
View from above orbital plane
View from above satellite
View from above satellite

Ground track
Ground track

The orbit data is extracted from the following two-line orbital elements,

1 39026U 12072A   17291.97067401 +.00001633 +00000-0 +64857-4 0  9993
2 39026 097.2194 305.5878 0041977 098.3167 262.2834 15.25929175268809
Epoch (UTC): 18 October 2017 23:17:46
Eccentricity: 0.0041977
inclination: 97.2194°
perigee height: 459 km
apogee height: 517 km
right ascension of ascending node: 305.5878°
argument of perigee: 98.3167°
revolutions per day: 15.25929175
mean anomaly at epoch: 262.2834°
orbit number at epoch: 26880

The dashed part of the orbit path shows where the satellite is in the earth's shadow,  

DLR